When you browse on this site, cookies collect data to enhance your experience and personalize the content and advertising you see.
Visit our Privacy Policy to learn more. By continuing to use the site, you agree to this use of cookies and data.
  • In Latvia
  • List of Countries
  • For 7 days
  • Water Temperature
  • Satellite Maps
  • Weather Map
  • Weather Widgets
  • user-avatar
    Login

    Hourly Weather Przedbojewice

    Today, 27 March, Wednesday

    Time Temperature Precipitation Wind Pressure Humidity
    00:00 -2°C° 0 mm 2 mps 760 mmHg 74%
    01:00 -2°C° 0 mm 2 mps 760 mmHg 75%
    02:00 -2°C° 0 mm 2 mps 760 mmHg 75%
    03:00 -2°C° 0 mm 2 mps 761 mmHg 74%
    04:00 -2°C° 0 mm 2 mps 761 mmHg 74%
    05:00 -1°C° 0 mm 2 mps 761 mmHg 73%
    06:00 +1°C° 0 mm 2 mps 761 mmHg 73%
    07:00 0°C° 0 mm 3 mps 762 mmHg 72%
    08:00 +2°C° 0 mm 3 mps 762 mmHg 66%
    09:00 +4°C° 0 mm 3 mps 762 mmHg 60%
    10:00 +6°C° 0 mm 4 mps 762 mmHg 54%
    11:00 +7°C° 0 mm 4 mps 762 mmHg 51%
    12:00 +8°C° 0 mm 4 mps 762 mmHg 47%
    13:00 +8°C° 0 mm 5 mps 762 mmHg 43%
    14:00 +8°C° 0 mm 5 mps 762 mmHg 51%
    15:00 +8°C° 0 mm 5 mps 762 mmHg 59%
    16:00 +8°C° 0 mm 5 mps 762 mmHg 66%
    17:00 +7°C° 0.3 mm 4 mps 762 mmHg 74%
    18:00 +7°C° 0.3 mm 3 mps 762 mmHg 81%
    19:00 +6°C° 0.3 mm 2 mps 762 mmHg 88%
    20:00 +5°C° 0.1 mm 3 mps 762 mmHg 88%
    21:00 +7°C° 0.1 mm 3 mps 762 mmHg 87%
    22:00 +7°C° 0.1 mm 3 mps 762 mmHg 87%
    23:00 +5°C° 0 mm 3 mps 762 mmHg 89%

    Tomorrow, 28 March, Thursday

    Time Temperature Precipitation Wind Pressure Humidity
    00:00 +5°C° 0 mm 3 mps 762 mmHg 92%
    01:00 +5°C° 0 mm 3 mps 762 mmHg 94%
    02:00 +6°C° 0.1 mm 2 mps 762 mmHg 95%
    03:00 +6°C° 0.1 mm 2 mps 762 mmHg 95%
    04:00 +5°C° 0.1 mm 2 mps 763 mmHg 96%
    05:00 +5°C° 0.1 mm 2 mps 763 mmHg 95%
    06:00 +6°C° 0.1 mm 2 mps 763 mmHg 95%
    07:00 +7°C° 0.1 mm 1 mps 763 mmHg 94%
    08:00 +7°C° 0 mm 2 mps 764 mmHg 85%
    09:00 +9°C° 0 mm 2 mps 764 mmHg 76%
    10:00 +10°C° 0 mm 2 mps 765 mmHg 67%
    11:00 +12°C° 0 mm 2 mps 765 mmHg 62%
    12:00 +13°C° 0 mm 2 mps 765 mmHg 58%
    13:00 +13°C° 0 mm 2 mps 765 mmHg 53%
    14:00 +13°C° 0 mm 2 mps 765 mmHg 55%
    15:00 +13°C° 0 mm 2 mps 765 mmHg 57%
    16:00 +13°C° 0 mm 1 mps 765 mmHg 59%
    17:00 +11°C° 0 mm 1 mps 765 mmHg 63%
    18:00 +10°C° 0 mm 1 mps 765 mmHg 68%
    19:00 +9°C° 0 mm 1 mps 766 mmHg 72%
    20:00 +8°C° 0 mm 1 mps 766 mmHg 73%
    21:00 +8°C° 0 mm 1 mps 766 mmHg 75%
    22:00 +7°C° 0 mm 2 mps 766 mmHg 77%
    23:00 +6°C° 0 mm 2 mps 766 mmHg 80%

    Day after tomorrow, 29 March, Friday

    Time Temperature Precipitation Wind Pressure Humidity
    00:00 +6°C° 0 mm 2 mps 766 mmHg 84%
    01:00 +5°C° 0 mm 2 mps 766 mmHg 88%
    02:00 +5°C° 0 mm 2 mps 766 mmHg 89%
    03:00 +5°C° 0 mm 2 mps 766 mmHg 91%
    04:00 +4°C° 0 mm 3 mps 766 mmHg 92%
    05:00 +4°C° 0 mm 3 mps 766 mmHg 91%
    06:00 +5°C° 0 mm 3 mps 766 mmHg 89%
    07:00 +5°C° 0 mm 3 mps 766 mmHg 88%
    08:00 +8°C° 0 mm 3 mps 766 mmHg 83%
    09:00 +10°C° 0 mm 3 mps 766 mmHg 78%
    10:00 +12°C° 0 mm 4 mps 766 mmHg 73%
    11:00 +13°C° 0 mm 4 mps 766 mmHg 69%
    12:00 +14°C° 0 mm 4 mps 766 mmHg 65%
    13:00 +15°C° 0 mm 4 mps 765 mmHg 60%
    14:00 +15°C° 0 mm 4 mps 765 mmHg 62%
    15:00 +15°C° 0 mm 4 mps 765 mmHg 63%
    16:00 +14°C° 0 mm 4 mps 764 mmHg 65%
    17:00 +13°C° 0 mm 4 mps 764 mmHg 71%
    18:00 +12°C° 0 mm 3 mps 764 mmHg 76%
    19:00 +10°C° 0 mm 3 mps 764 mmHg 82%
    20:00 +10°C° 0 mm 3 mps 764 mmHg 84%
    21:00 +9°C° 0 mm 3 mps 764 mmHg 86%
    22:00 +8°C° 0 mm 4 mps 764 mmHg 88%
    23:00 +9°C° 0 mm 3 mps 764 mmHg 90%

    30 March, Saturday

    Time Temperature Precipitation Wind Pressure Humidity
    00:00 +8°C° 0 mm 3 mps 764 mmHg 91%
    01:00 +8°C° 0 mm 3 mps 764 mmHg 92%
    02:00 +7°C° 0 mm 3 mps 763 mmHg 93%
    03:00 +7°C° 0 mm 3 mps 763 mmHg 93%
    04:00 +7°C° 0 mm 3 mps 763 mmHg 94%
    05:00 +7°C° 0 mm 3 mps 763 mmHg 92%
    06:00 +8°C° 0 mm 3 mps 763 mmHg 90%
    07:00 +7°C° 0 mm 4 mps 763 mmHg 88%
    08:00 +10°C° 0 mm 4 mps 762 mmHg 82%
    09:00 +12°C° 0 mm 4 mps 762 mmHg 75%
    10:00 +13°C° 0 mm 4 mps 762 mmHg 69%
    11:00 +14°C° 0 mm 4 mps 762 mmHg 66%
    12:00 +15°C° 0 mm 5 mps 761 mmHg 62%
    13:00 +16°C° 0 mm 5 mps 761 mmHg 59%
    14:00 +17°C° 0 mm 4 mps 760 mmHg 58%
    15:00 +17°C° 0 mm 4 mps 759 mmHg 58%
    16:00 +17°C° 0 mm 4 mps 759 mmHg 57%
    17:00 +15°C° 0 mm 4 mps 758 mmHg 62%
    18:00 +13°C° 0 mm 3 mps 758 mmHg 66%
    19:00 +13°C° 0 mm 2 mps 758 mmHg 71%
    20:00 +11°C° 0 mm 3 mps 757 mmHg 70%
    21:00 +10°C° 0 mm 3 mps 757 mmHg 70%
    22:00 +10°C° 0 mm 3 mps 757 mmHg 69%
    23:00 +9°C° 0 mm 3 mps 756 mmHg 70%

    31 March, Sunday

    Time Temperature Precipitation Wind Pressure Humidity
    00:00 +9°C° 0 mm 3 mps 756 mmHg 71%
    01:00 +8°C° 0 mm 3 mps 755 mmHg 72%
    02:00 +8°C° 0 mm 3 mps 755 mmHg 74%
    03:00 +8°C° 0 mm 3 mps 754 mmHg 75%
    04:00 +7°C° 0 mm 3 mps 754 mmHg 77%
    05:00 +8°C° 0 mm 3 mps 754 mmHg 75%
    06:00 +7°C° 0 mm 4 mps 754 mmHg 74%
    07:00 +8°C° 0 mm 4 mps 753 mmHg 73%
    08:00 +9°C° 0 mm 5 mps 753 mmHg 68%
    09:00 +12°C° 0 mm 5 mps 753 mmHg 63%
    10:00 +14°C° 0 mm 5 mps 753 mmHg 59%
    11:00 +14°C° 0.1 mm 6 mps 753 mmHg 58%
    12:00 +14°C° 0.1 mm 6 mps 753 mmHg 57%
    13:00 +14°C° 0.1 mm 6 mps 753 mmHg 57%
    14:00 +12°C° 0 mm 7 mps 753 mmHg 57%
    15:00 +11°C° 0 mm 7 mps 753 mmHg 58%
    16:00 +10°C° 0 mm 7 mps 753 mmHg 59%
    17:00 +9°C° 0 mm 6 mps 754 mmHg 55%
    18:00 +7°C° 0 mm 6 mps 755 mmHg 51%
    19:00 +5°C° 0 mm 6 mps 755 mmHg 47%
    20:00 +4°C° 0 mm 6 mps 756 mmHg 52%
    21:00 +3°C° 0 mm 5 mps 757 mmHg 57%
    22:00 +2°C° 0 mm 5 mps 757 mmHg 63%
    23:00 +2°C° 0 mm 5 mps 758 mmHg 64%

    1 April, Monday

    Time Temperature Precipitation Wind Pressure Humidity
    00:00 +1°C° 0 mm 5 mps 758 mmHg 66%
    01:00 +1°C° 0 mm 5 mps 759 mmHg 68%
    02:00 0°C° 0 mm 4 mps 759 mmHg 69%
    03:00 -1°C° 0 mm 4 mps 760 mmHg 69%
    04:00 0°C° 0 mm 3 mps 760 mmHg 70%
    05:00 -1°C° 0 mm 4 mps 760 mmHg 68%
    06:00 0°C° 0 mm 4 mps 761 mmHg 66%
    07:00 0°C° 0 mm 5 mps 761 mmHg 65%
    08:00 +1°C° 0 mm 5 mps 761 mmHg 60%
    09:00 +3°C° 0 mm 4 mps 762 mmHg 55%
    10:00 +4°C° 0 mm 4 mps 762 mmHg 50%
    11:00 +5°C° 0 mm 4 mps 762 mmHg 48%
    12:00 +6°C° 0 mm 4 mps 761 mmHg 45%
    13:00 +6°C° 0 mm 4 mps 761 mmHg 43%
    14:00 +6°C° 0 mm 4 mps 761 mmHg 42%
    15:00 +6°C° 0 mm 4 mps 761 mmHg 42%
    16:00 +6°C° 0 mm 4 mps 760 mmHg 42%
    17:00 +5°C° 0 mm 3 mps 760 mmHg 47%
    18:00 +4°C° 0 mm 3 mps 760 mmHg 53%
    19:00 +4°C° 0 mm 2 mps 760 mmHg 58%
    20:00 +3°C° 0 mm 2 mps 760 mmHg 64%
    21:00 +2°C° 0 mm 2 mps 760 mmHg 69%
    22:00 +1°C° 0 mm 2 mps 760 mmHg 75%
    23:00 +1°C° 0 mm 2 mps 760 mmHg 76%
    Show more